TimeMST,TemperatureF,Dew PointF,Humidity,Sea Level PressureIn,VisibilityMPH,Wind Direction,Wind SpeedMPH,Gust SpeedMPH,PrecipitationIn,Events,Conditions,WindDirDegrees,DateUTC
12:53 AM,27.0,14.0,58,29.89,10.0,Calm,Calm,-,N/A,,Clear,0,2012-12-13 07:53:00
1:53 AM,27.0,12.9,56,29.91,10.0,East,3.5,-,N/A,,Clear,100,2012-12-13 08:53:00
2:53 AM,26.1,14.0,60,29.93,10.0,East,4.6,-,N/A,,Clear,100,2012-12-13 09:53:00
3:53 AM,25.0,14.0,63,29.94,10.0,SSE,4.6,-,N/A,,Clear,160,2012-12-13 10:53:00
4:53 AM,26.1,15.1,63,29.96,10.0,NNE,6.9,-,N/A,,Clear,20,2012-12-13 11:53:00
5:53 AM,24.1,14.0,65,30.01,10.0,SW,5.8,-,N/A,,Clear,230,2012-12-13 12:53:00
6:53 AM,21.9,14.0,72,30.01,10.0,NW,5.8,-,N/A,,Clear,320,2012-12-13 13:53:00
7:53 AM,25.0,15.1,66,30.03,10.0,Calm,Calm,-,N/A,,Mostly Cloudy,0,2012-12-13 14:53:00
8:53 AM,30.9,18.0,59,30.04,10.0,East,5.8,-,N/A,,Clear,100,2012-12-13 15:53:00
9:53 AM,37.9,18.0,45,30.04,10.0,SE,8.1,-,N/A,,Clear,130,2012-12-13 16:53:00
10:53 AM,43.0,18.0,37,30.02,10.0,ESE,8.1,-,N/A,,Clear,120,2012-12-13 17:53:00
11:53 AM,43.0,18.0,37,30.02,10.0,SE,8.1,-,N/A,,Clear,130,2012-12-13 18:53:00
12:53 PM,46.0,19.0,34,29.99,10.0,SE,6.9,-,N/A,,Partly Cloudy,130,2012-12-13 19:53:00
1:53 PM,48.0,19.0,32,29.96,10.0,East,6.9,-,N/A,,Clear,100,2012-12-13 20:53:00
2:53 PM,48.0,18.0,30,29.96,10.0,East,9.2,-,N/A,,Clear,100,2012-12-13 21:53:00
3:53 PM,46.4,17.6,32,29.92,10.0,SE,10.4,-,N/A,,Clear,140,2012-12-13 22:53:00
4:53 PM,37.0,17.1,44,29.99,10.0,East,9.2,-,N/A,,Clear,80,2012-12-13 23:53:00
5:53 PM,37.0,17.1,44,30.00,10.0,SE,9.2,-,N/A,,Clear,130,2012-12-14 00:53:00
6:53 PM,39.0,17.1,41,29.99,10.0,SE,8.1,-,N/A,,Clear,140,2012-12-14 01:53:00
7:53 PM,33.1,16.0,50,29.99,10.0,East,8.1,-,N/A,,Clear,90,2012-12-14 02:53:00
8:53 PM,35.1,17.1,48,29.97,10.0,East,8.1,-,N/A,,Clear,100,2012-12-14 03:53:00
9:53 PM,34.0,17.1,50,29.95,10.0,ESE,11.5,-,N/A,,Clear,120,2012-12-14 04:53:00
10:53 PM,33.8,17.6,52,29.90,10.0,East,6.9,-,N/A,,Clear,100,2012-12-14 05:53:00
11:53 PM,32.0,17.1,54,29.91,10.0,ESE,8.1,-,N/A,,Clear,110,2012-12-14 06:53:00